Time,TemperatureF,DewpointF,PressureIn,WindDirection,WindDirectionDegrees,WindSpeedMPH,WindSpeedGustMPH,Humidity,HourlyPrecipIn,Conditions,Clouds,dailyrainin,SoftwareType,DateUTC
2013-03-22 00:00:00,37.0,-99.9,-100.00,SSE,166,5.0,-999.0,-999,-99.99,,,-99.99,,2013-03-22 07:00:00,
2013-03-22 01:00:00,37.0,-99.9,-100.00,SSE,161,5.0,-999.0,-999,-99.99,,,-99.99,,2013-03-22 08:00:00,
2013-03-22 02:00:00,38.0,-99.9,-100.00,SSE,166,5.0,-999.0,-999,-99.99,,,-99.99,,2013-03-22 09:00:00,
2013-03-22 03:00:00,37.0,-99.9,-100.00,South,176,6.0,-999.0,-999,-99.99,,,-99.99,,2013-03-22 10:00:00,
2013-03-22 04:00:00,37.0,-99.9,-100.00,South,184,5.0,-999.0,-999,-99.99,,,-99.99,,2013-03-22 11:00:00,
2013-03-22 05:00:00,38.0,-99.9,-100.00,South,185,3.0,-999.0,-999,-99.99,,,-99.99,,2013-03-22 12:00:00,
2013-03-22 06:00:00,38.0,-99.9,-100.00,South,176,6.0,-999.0,-999,-99.99,,,-99.99,,2013-03-22 13:00:00,
2013-03-22 07:00:00,37.0,-99.9,-100.00,SSE,159,3.0,-999.0,-999,-99.99,,,-99.99,,2013-03-22 14:00:00,
2013-03-22 08:00:00,37.0,-99.9,-100.00,ESE,122,2.0,-999.0,-999,-99.99,,,-99.99,,2013-03-22 15:00:00,
2013-03-22 09:00:00,37.0,-99.9,-100.00,East,88,2.0,-999.0,-999,-99.99,,,-99.99,,2013-03-22 16:00:00,
2013-03-22 10:00:00,38.0,-99.9,-100.00,NE,49,2.0,-999.0,-999,-99.99,,,-99.99,,2013-03-22 17:00:00,
2013-03-22 11:00:00,39.0,-99.9,-100.00,NNE,12,3.0,-999.0,-999,-99.99,,,-99.99,,2013-03-22 18:00:00,
2013-03-22 12:00:00,42.0,-99.9,-100.00,North,5,2.0,-999.0,-999,-99.99,,,-99.99,,2013-03-22 19:00:00,
2013-03-22 13:00:00,44.0,-99.9,-100.00,NNW,348,2.0,-999.0,-999,-99.99,,,-99.99,,2013-03-22 20:00:00,
2013-03-22 14:00:00,43.0,-99.9,-100.00,NNW,335,3.0,-999.0,-999,-99.99,,,-99.99,,2013-03-22 21:00:00,
2013-03-22 15:00:00,49.0,-99.9,-100.00,NW,324,6.0,-999.0,-999,-99.99,,,-99.99,,2013-03-22 22:00:00,
2013-03-22 16:00:00,49.0,-99.9,-100.00,NNW,328,5.0,-999.0,-999,-99.99,,,-99.99,,2013-03-22 23:00:00,
2013-03-22 17:00:00,46.0,-99.9,-100.00,NNW,330,3.0,-999.0,-999,-99.99,,,-99.99,,2013-03-23 00:00:00,
2013-03-22 18:00:00,46.0,-99.9,-100.00,NNE,12,3.0,-999.0,-999,-99.99,,,-99.99,,2013-03-23 01:00:00,
2013-03-22 19:00:00,45.0,-99.9,-100.00,NNW,339,5.0,-999.0,-999,-99.99,,,-99.99,,2013-03-23 02:00:00,
2013-03-22 22:00:00,42.0,-99.9,-100.00,North,360,2.0,-999.0,-999,-99.99,,,-99.99,,2013-03-23 05:00:00,
2013-03-22 23:00:00,41.0,-99.9,-100.00,NE,34,1.0,-999.0,-999,-99.99,,,-99.99,,2013-03-23 06:00:00,